Location: Fornova de Taro
(44.7000°N, 10.1000°E)
Time: 02:31:48
(UTC+00:00)

USA 306 - Pass Details

Date: 26 May 2022
Orbit: 545 x 556 km, 54.0° (Epoch: 20 June)

Event Time Altitude Azimuth Distance (km) Brightness Sun altitude
Exits shadow 01:42:37 11° 277° (W) 1,803 5.2 -16.3°
Maximum altitude 01:46:18 32° 341° (NNW) 970 4.4 -15.9°
Drops below altitude 10° 01:50:06 10° 45° (NE) 1,850 6.8 -15.5°
Sets 01:52:32 0° 56° (NE) 2,749 7.8 -15.2°
